TimeCDT,TemperatureF,Dew PointF,Humidity,Sea Level PressureIn,VisibilityMPH,Wind Direction,Wind SpeedMPH,Gust SpeedMPH,PrecipitationIn,Events,Conditions,WindDirDegrees,DateUTC
12:53 AM,44.1,42.1,93,29.62,0.2,SSW,8.1,-,0.01,Fog,Fog,210,2013-03-11 05:53:00
1:53 AM,44.1,42.1,93,29.63,0.2,SW,8.1,-,N/A,Fog,Fog,220,2013-03-11 06:53:00
2:29 AM,42.8,41.0,93,29.61,1.0,WSW,15.0,-,N/A,,Overcast,240,2013-03-11 07:29:00
2:34 AM,42.8,39.2,87,29.61,3.0,WSW,11.5,-,N/A,,Overcast,240,2013-03-11 07:34:00
2:53 AM,41.0,39.9,96,29.62,4.0,WSW,9.2,-,N/A,,Overcast,240,2013-03-11 07:53:00
3:21 AM,39.2,39.2,100,29.59,1.8,WSW,9.2,-,N/A,,Overcast,250,2013-03-11 08:21:00
3:42 AM,39.2,37.4,93,29.59,2.0,WSW,10.4,-,N/A,,Overcast,240,2013-03-11 08:42:00
3:49 AM,39.2,37.4,93,29.59,1.2,WSW,12.7,-,N/A,,Overcast,240,2013-03-11 08:49:00
3:53 AM,39.0,37.9,96,29.62,1.8,WSW,11.5,-,N/A,,Overcast,240,2013-03-11 08:53:00
3:56 AM,39.2,37.4,93,29.59,3.0,WSW,9.2,-,N/A,,Overcast,240,2013-03-11 08:56:00
4:00 AM,39.2,37.4,93,29.59,1.8,WSW,8.1,-,N/A,,Overcast,240,2013-03-11 09:00:00
4:11 AM,39.2,37.4,93,29.59,0.8,WSW,11.5,-,N/A,,Overcast,240,2013-03-11 09:11:00
4:38 AM,37.4,37.4,100,29.58,0.2,WSW,9.2,-,N/A,Fog,Fog,240,2013-03-11 09:38:00
4:53 AM,39.0,37.0,93,29.60,0.5,WSW,9.2,-,N/A,Fog,Fog,240,2013-03-11 09:53:00
5:53 AM,37.9,36.0,93,29.58,0.2,SSW,3.5,-,N/A,Fog,Fog,200,2013-03-11 10:53:00
6:23 AM,37.4,37.4,100,29.59,0.5,South,6.9,-,N/A,Fog,Fog,180,2013-03-11 11:23:00
6:30 AM,37.4,37.4,100,29.59,0.2,South,6.9,-,N/A,Fog,Fog,180,2013-03-11 11:30:00
6:53 AM,37.9,37.0,97,29.62,0.5,SSW,6.9,-,N/A,Fog,Fog,200,2013-03-11 11:53:00
7:53 AM,37.0,35.1,93,29.61,0.5,WNW,6.9,-,0.00,Fog,Fog,300,2013-03-11 12:53:00
8:00 AM,37.4,35.6,93,29.60,0.2,WNW,5.8,-,N/A,Fog,Fog,290,2013-03-11 13:00:00
8:49 AM,37.4,35.6,93,29.60,0.5,NW,3.5,-,0.02,Fog-Rain,Light Rain,320,2013-03-11 13:49:00
8:53 AM,37.0,36.0,96,29.62,0.5,NNW,4.6,-,0.02,Fog-Rain,Light Rain,330,2013-03-11 13:53:00
9:15 AM,35.6,35.6,100,29.58,1.8,NW,4.6,-,0.00,Rain,Light Rain,310,2013-03-11 14:15:00
9:53 AM,36.0,34.0,93,29.59,2.0,West,4.6,-,0.02,Rain,Light Rain,270,2013-03-11 14:53:00
10:39 AM,35.6,33.8,93,29.57,3.0,West,5.8,-,0.00,,Overcast,280,2013-03-11 15:39:00
10:53 AM,35.1,33.1,92,29.58,5.0,West,3.5,-,0.00,,Overcast,280,2013-03-11 15:53:00
11:53 AM,36.0,34.0,93,29.57,5.0,West,3.5,-,0.01,Rain,Light Rain,260,2013-03-11 16:53:00
12:53 PM,36.0,34.0,93,29.56,5.0,West,3.5,-,0.00,,Overcast,260,2013-03-11 17:53:00
1:17 PM,35.6,33.8,93,29.54,1.8,SW,10.4,16.1,N/A,,Overcast,230,2013-03-11 18:17:00
1:53 PM,36.0,34.0,93,29.54,1.8,WSW,10.4,-,0.01,Rain,Light Rain,240,2013-03-11 18:53:00
2:19 PM,35.6,33.8,93,29.51,2.5,WSW,13.8,-,0.00,Rain,Light Rain,240,2013-03-11 19:19:00
2:53 PM,35.1,32.0,89,29.53,2.0,WNW,11.5,-,0.01,,Overcast,290,2013-03-11 19:53:00
3:15 PM,35.6,32.0,87,29.51,3.0,West,11.5,-,N/A,,Overcast,280,2013-03-11 20:15:00
3:36 PM,33.8,32.0,93,29.52,3.0,West,8.1,-,N/A,,Overcast,280,2013-03-11 20:36:00
3:51 PM,33.8,32.0,93,29.53,6.0,West,9.2,-,N/A,,Overcast,270,2013-03-11 20:51:00
3:53 PM,34.0,32.0,92,29.55,7.0,West,9.2,-,N/A,,Overcast,270,2013-03-11 20:53:00
4:41 PM,33.8,30.2,87,29.55,2.5,West,10.4,-,0.00,,Overcast,270,2013-03-11 21:41:00
4:53 PM,34.0,30.9,89,29.57,2.5,West,10.4,-,0.00,Snow,Light Snow,270,2013-03-11 21:53:00
5:05 PM,33.8,30.2,87,29.56,2.5,West,11.5,-,0.00,Snow,Light Snow,260,2013-03-11 22:05:00
5:53 PM,34.0,30.0,85,29.62,1.8,West,11.5,-,0.00,Snow,Light Snow,270,2013-03-11 22:53:00
6:26 PM,33.8,30.2,87,29.60,1.8,West,10.4,-,0.01,Snow,Light Snow,260,2013-03-11 23:26:00
6:53 PM,33.1,30.0,89,29.64,4.0,West,11.5,-,0.01,Snow,Light Snow,260,2013-03-11 23:53:00
7:53 PM,34.0,30.0,85,29.68,10.0,West,10.4,-,0.00,,Overcast,270,2013-03-12 00:53:00
8:53 PM,33.1,28.9,85,29.69,6.0,West,12.7,-,N/A,,Overcast,270,2013-03-12 01:53:00
9:33 PM,33.8,28.4,81,29.68,10.0,West,15.0,-,N/A,,Overcast,280,2013-03-12 02:33:00
9:53 PM,33.1,28.0,82,29.71,10.0,West,12.7,21.9,N/A,,Overcast,280,2013-03-12 02:53:00
10:48 PM,33.8,26.6,75,29.71,10.0,West,17.3,-,N/A,,Overcast,280,2013-03-12 03:48:00
10:53 PM,33.1,27.0,78,29.73,10.0,West,16.1,-,N/A,,Overcast,280,2013-03-12 03:53:00
11:53 PM,33.1,27.0,78,29.76,10.0,West,11.5,-,N/A,,Overcast,280,2013-03-12 04:53:00